Plymouth, NH

1:18 AM EST on December 03, 2016 (GMT -0500)
Plymouth

Weather History for K1P1 - July, 2013

Change the Weather History Date:

Saturday, July 20, 2013

  Actual Average (KLCI) Record (KLCI)
Temperature  
Mean Temperature 74 °F -  
Max Temperature 84 °F 81 °F 95 °F (1991)
Min Temperature 64 °F 61 °F 44 °F (2000)
Cooling Degree Days 9    
Growing Degree Days 24 (Base 50)    
Moisture  
Dew Point 66 °F    
Average Humidity 77    
Maximum Humidity 96    
Minimum Humidity 51    
Precipitation  
Precipitation 0.11 in - - ()
Sea Level Pressure  
Sea Level Pressure 29.70 in    
Wind  
Wind Speed 4 mph (West)    
Max Wind Speed 21 mph    
Max Gust Speed 29 mph    
Visibility 9 miles    
Events Rain , Thunderstorm    
Averages and records for this station are not official NWS values.
T = Trace of Precipitation, MM = Missing Value Source: NWS Daily Summary

Daily Weather History Graph

Daily Weather History Graph

Search for Another Location

Airport or City:

Trip Planner

Search our weather history database for the weather conditions in past years. The results will help you decide how hot, cold, wet, or windy it might be!

Date:

Astronomy

Jul. 20, 2013 Rise Set
Actual Time 5:23 AM EDT 8:22 PM EDT
Civil Twilight 4:49 AM EDT 8:56 PM EDT
Nautical Twilight 4:05 AM EDT 9:40 PM EDT
Astronomical Twilight 3:14 AM EDT 10:31 PM EDT
Moon 6:22 PM EDT (7/20) 3:00 AM EDT (7/20)
Length of Visible Light 16h 07m
Length of Day
14h 58m
Waxing Gibbous, 93% of the Moon is Illuminated
Jul 20
Waxing Gibbous
Jul 22
Full
Jul 29
Last Quarter
Aug 6
New
Aug 14
First Quarter

Hourly Weather History & Observations

Time (EDT) Temp. Heat Index Dew Point Humidity Pressure Visibility Wind Dir Wind Speed Gust Speed Precip Events Conditions
12:15 AM 71.6 °F - 69.3 °F 92% 29.74 in 10.0 mi SSW 3.5 mph - N/A Rain , Thunderstorm Light Thunderstorms and Rain
12:35 AM 71.2 °F - 69.1 °F 93% 29.71 in 10.0 mi East 5.8 mph - N/A Rain , Thunderstorm Light Thunderstorms and Rain
12:55 AM 71.6 °F - 68.7 °F 91% 29.65 in 10.0 mi Calm Calm - 0.02 in Rain , Thunderstorm Light Thunderstorms and Rain
1:15 AM 71.2 °F - 68.9 °F 92% 29.66 in 10.0 mi WNW 5.8 mph - N/A   Clear
1:35 AM 71.1 °F - 68.4 °F 91% 29.68 in 10.0 mi Calm Calm - N/A   Clear
1:55 AM 71.4 °F - 66.7 °F 85% 29.68 in 10.0 mi West 4.6 mph - N/A   Clear
2:15 AM 71.6 °F - 66.2 °F 83% 29.69 in 10.0 mi NW 4.6 mph - N/A   Clear
2:35 AM 70.2 °F - 65.7 °F 86% 29.69 in 10.0 mi Calm Calm - N/A   Clear
2:55 AM 68.9 °F - 66.2 °F 91% 29.69 in 10.0 mi East 3.5 mph - N/A   Clear
3:15 AM 68.2 °F - 65.8 °F 92% 29.69 in 10.0 mi NNE 3.5 mph - N/A   Clear
3:35 AM 68.0 °F - 65.5 °F 92% 29.70 in 10.0 mi Calm Calm - N/A   Clear
3:55 AM 66.9 °F - 65.1 °F 94% 29.70 in 7.0 mi Calm Calm - N/A   Clear
4:15 AM 67.1 °F - 65.7 °F 95% 29.69 in 7.0 mi Calm Calm - N/A   Clear
4:35 AM 66.6 °F - 65.3 °F 96% 29.70 in 5.0 mi Calm Calm - N/A   Clear
4:55 AM 66.4 °F - 65.1 °F 96% 29.69 in 5.0 mi Calm Calm - N/A   Clear
5:15 AM 66.2 °F - 64.6 °F 94% 29.70 in 7.0 mi Calm Calm - N/A   Clear
5:35 AM 65.8 °F - 64.6 °F 96% 29.69 in 5.0 mi Calm Calm - N/A   Clear
5:55 AM 65.8 °F - 64.6 °F 96% 29.70 in 5.0 mi Calm Calm - N/A   Clear
6:15 AM 65.3 °F - 64.0 °F 96% 29.71 in 2.5 mi Calm Calm - N/A   Clear
6:35 AM 66.0 °F - 64.6 °F 95% 29.71 in 5.0 mi Calm Calm - N/A   Clear
6:55 AM 67.5 °F - 66.2 °F 96% 29.71 in 7.0 mi Calm Calm - N/A   Clear
7:15 AM 68.9 °F - 67.3 °F 95% 29.72 in 10.0 mi Calm Calm - N/A   Clear
7:35 AM 71.1 °F - 68.0 °F 90% 29.72 in 10.0 mi Calm Calm - N/A   Clear
7:55 AM 72.1 °F - 68.0 °F 87% 29.72 in 10.0 mi Calm Calm - N/A   Clear
8:15 AM 74.8 °F - 67.5 °F 78% 29.72 in 10.0 mi ENE 3.5 mph - N/A   Clear
8:35 AM 76.3 °F - 66.9 °F 73% 29.72 in 10.0 mi East 3.5 mph - N/A   Clear
8:55 AM 78.3 °F - 66.6 °F 67% 29.71 in 10.0 mi ENE 3.5 mph - N/A   Clear
9:15 AM 79.2 °F - 65.8 °F 64% 29.71 in 10.0 mi Calm Calm - N/A   Clear
9:35 AM 79.3 °F - 64.6 °F 60% 29.70 in 10.0 mi WNW 3.5 mph - N/A   Clear
9:55 AM 79.7 °F - 65.1 °F 61% 29.70 in 10.0 mi WNW 4.6 mph - N/A   Clear
10:15 AM 79.5 °F - 63.9 °F 59% 29.70 in 10.0 mi WNW 4.6 mph - N/A   Clear
10:35 AM 80.2 °F 81.8 °F 63.5 °F 57% 29.69 in 10.0 mi West 9.2 mph 16.1 mph N/A   Clear
10:55 AM 80.6 °F 82.0 °F 63.5 °F 56% 29.69 in 10.0 mi West 8.1 mph - N/A   Clear
11:15 AM 82.4 °F 83.9 °F 64.2 °F 54% 29.69 in 10.0 mi WNW 11.5 mph 19.6 mph N/A   Clear
11:35 AM 82.4 °F 83.7 °F 63.9 °F 53% 29.69 in 10.0 mi West 8.1 mph 20.7 mph N/A   Clear
11:55 AM 81.7 °F 83.2 °F 64.0 °F 55% 29.68 in 10.0 mi West 9.2 mph - N/A   Clear
12:15 PM 83.3 °F 85.3 °F 65.7 °F 55% 29.67 in 10.0 mi WNW 8.1 mph - N/A   Clear
12:35 PM 83.5 °F 85.3 °F 65.1 °F 54% 29.67 in 10.0 mi SW 6.9 mph - N/A   Clear
12:55 PM 84.4 °F 85.9 °F 64.4 °F 51% 29.67 in 10.0 mi WSW 13.8 mph 21.9 mph N/A   Clear
1:15 PM 82.6 °F 83.8 °F 63.5 °F 52% 29.67 in 10.0 mi WSW 5.8 mph 19.6 mph N/A   Clear
1:35 PM 81.9 °F 83.4 °F 64.0 °F 55% 29.66 in 10.0 mi SW 6.9 mph - N/A   Clear
1:55 PM 81.5 °F 82.9 °F 64.0 °F 55% 29.66 in 10.0 mi SW 6.9 mph - N/A   Clear
2:15 PM 83.7 °F 85.3 °F 64.9 °F 53% 29.65 in 10.0 mi West 11.5 mph 17.3 mph N/A   Clear
2:35 PM 84.4 °F 86.1 °F 65.1 °F 52% 29.66 in 10.0 mi West 6.9 mph 20.7 mph N/A   Scattered Clouds
2:55 PM 83.3 °F 85.1 °F 64.9 °F 54% 29.65 in 10.0 mi WSW 4.6 mph 19.6 mph N/A   Scattered Clouds
3:15 PM 83.3 °F 85.7 °F 66.4 °F 57% 29.65 in 10.0 mi WSW 5.8 mph - N/A   Clear
3:35 PM 82.8 °F 84.5 °F 65.1 °F 55% 29.65 in 10.0 mi West 6.9 mph 16.1 mph N/A   Scattered Clouds
3:55 PM 83.3 °F 85.7 °F 66.4 °F 57% 29.65 in 10.0 mi WSW 8.1 mph - N/A   Scattered Clouds
4:15 PM 83.3 °F 85.5 °F 66.2 °F 56% 29.65 in 10.0 mi West 6.9 mph - N/A   Scattered Clouds
4:35 PM 79.9 °F - 68.2 °F 67% 29.67 in 7.0 mi NW 20.7 mph 28.8 mph N/A Rain Light Rain
4:55 PM 73.4 °F - 66.2 °F 78% 29.66 in 10.0 mi WSW 9.2 mph - 0.09 in   Mostly Cloudy
5:15 PM 74.5 °F - 65.8 °F 74% 29.67 in 10.0 mi West 8.1 mph - N/A   Scattered Clouds
5:35 PM 75.0 °F - 66.7 °F 75% 29.68 in 10.0 mi WSW 4.6 mph - N/A   Clear
5:55 PM 76.6 °F - 68.0 °F 75% 29.68 in 10.0 mi Calm Calm - N/A   Clear
6:15 PM 77.9 °F - 67.1 °F 69% 29.69 in 10.0 mi Calm Calm - N/A   Clear
6:35 PM 79.9 °F - 66.4 °F 63% 29.69 in 10.0 mi WSW 4.6 mph - N/A   Clear
6:55 PM 78.4 °F - 66.0 °F 66% 29.70 in 10.0 mi West 3.5 mph - N/A   Clear
7:15 PM 77.2 °F - 67.1 °F 71% 29.71 in 10.0 mi NW 3.5 mph - N/A   Mostly Cloudy
7:35 PM 74.7 °F - 64.8 °F 71% 29.72 in 10.0 mi WNW 4.6 mph - N/A   Overcast
7:55 PM 73.0 °F - 65.3 °F 77% 29.72 in 10.0 mi NW 6.9 mph - N/A   Mostly Cloudy
8:15 PM 72.1 °F - 65.8 °F 80% 29.73 in 10.0 mi NW 5.8 mph - N/A   Scattered Clouds
8:35 PM 71.6 °F - 66.2 °F 83% 29.73 in 10.0 mi NW 5.8 mph - N/A   Clear
8:55 PM 70.0 °F - 66.2 °F 88% 29.75 in 10.0 mi Calm Calm - N/A   Clear
9:15 PM 70.9 °F - 64.4 °F 80% 29.75 in 10.0 mi NW 4.6 mph - N/A   Clear
9:35 PM 68.5 °F - 65.7 °F 90% 29.76 in 10.0 mi Calm Calm - N/A   Clear
9:55 PM 68.0 °F - 65.5 °F 92% 29.77 in 10.0 mi West 3.5 mph - N/A   Clear
10:15 PM 67.1 °F - 64.8 °F 92% 29.77 in 10.0 mi WSW 3.5 mph - N/A   Clear
10:35 PM 66.2 °F - 63.5 °F 91% 29.78 in 10.0 mi WNW 3.5 mph - N/A   Clear
10:55 PM 65.3 °F - 63.1 °F 93% 29.79 in 10.0 mi WNW 3.5 mph - N/A   Clear
11:15 PM 64.9 °F - 62.8 °F 93% 29.79 in 10.0 mi Calm Calm - N/A   Clear
11:35 PM 64.6 °F - 62.2 °F 92% 29.80 in 10.0 mi Calm Calm - N/A   Clear
11:55 PM 64.4 °F - 61.7 °F 91% 29.81 in 10.0 mi Calm Calm - N/A   Clear